Orbital Elements at Epoch 2459000.5 (2020-May-31.0) TDB
Reference: JPL 20 (heliocentric ecliptic J2000)
Element | Value | Uncertainty (1-sigma) | Units |
e | .07261227028784216 | 7.2105e-08 | |
a | 2.988847883256224 | 3.1501e-08 | au |
q | 2.771820852907978 | 2.2213e-07 | au |
i | 11.41030835395318 | 6.6017e-06 | deg |
node | 104.6805465237417 | 3.4811e-05 | deg |
peri | 112.706196689984 | 6.7088e-05 | deg |
M | 313.7009014838729 | 5.8912e-05 | deg |
tp | 2459243.230404447366 (2021-Jan-28.73040445) | 0.00031056 | TDB |
period | 1887.357387112284 5.17 | 2.9838e-05 8.169e-08 | d yr |
n | .1907428886856513 | 3.0156e-09 | deg/d |
Q | 3.20587491360447 | 3.3789e-08 | au |
|
| | Orbit Determination Parameters
Additional Information
|